Weather History for Lattakia, Syria

Change the Weather History Date:

Wednesday, November 21, 2012

  Actual Average Record
Temperature  
Mean Temperature 62 °F -  
Max Temperature 71 °F - - ()
Min Temperature 54 °F - - ()
Degree Days  
Heating Degree Days 2    
Growing Degree Days 12 (Base 50)    
Moisture  
Dew Point 53 °F    
Average Humidity 74    
Maximum Humidity 94    
Minimum Humidity 46    
Precipitation  
Precipitation 0.00 in - - ()
Sea Level Pressure  
Sea Level Pressure 30.01 in    
Wind  
Wind Speed 4 mph ()    
Max Wind Speed 7 mph    
Max Gust Speed -    
Visibility 7.0 miles    
Events      
T = Trace of Precipitation, MM = Missing Value Source: Averaged Metar Reports

Daily Weather History Graph

Daily Weather History Graph

Search for Another Location

Airport:

Trip Planner

Search our weather history database for the weather conditions in past years. The results will help you decide how hot, cold, wet, or windy it might be!

Date:

Astronomy

Nov. 21, 2012 Rise Set
Actual Time 6:17 AM EET 4:26 PM EET
Civil Twilight 5:50 AM EET 4:53 PM EET
Nautical Twilight 5:19 AM EET 5:24 PM EET
Astronomical Twilight 4:48 AM EET 5:55 PM EET
Moon 12:19 PM EET (11/21) No Moon Set
Length of Visible Light 11h 03m
Length of Day
10h 08m
First Quarter, 58% of the Moon is Illuminated
Nov 21
First Quarter
Nov 28
Full
Dec 6
Last Quarter
Dec 13
New
Dec 20
First Quarter

Hourly Weather History & Observations

Time (EET) Temp. Dew Point Humidity Pressure Visibility Wind Dir Wind Speed Gust Speed Precip Events Conditions
12:00 AM 55.4 °F 50.0 °F 82% 30.04 in - NE 4.6 mph - N/A   Clear
1:00 AM 55.4 °F 50.0 °F 82% 30.04 in - ENE 4.6 mph - N/A   Clear
2:00 AM 57 °F 53 °F 81% 30.03 in 9 mi Calm Calm - -  
2:00 AM 55.4 °F 50.0 °F 82% 30.04 in - NE 4.6 mph - N/A   Clear
3:00 AM 55.4 °F 50.0 °F 82% 30.04 in - NE 4.6 mph - N/A   Clear
4:00 AM 55.4 °F 50.0 °F 82% 30.04 in - NE 4.6 mph - N/A   Clear
5:00 AM 55.4 °F 50.0 °F 82% 30.04 in - NE 4.6 mph - N/A   Clear
6:00 AM 53.6 °F 48.2 °F 82% 30.04 in - NNE 4.6 mph - N/A   Clear
7:00 AM 53.6 °F 48.2 °F 82% 30.04 in 5.0 mi NE 4.6 mph - N/A   Partly Cloudy
8:00 AM 60 °F 55 °F 79% 30.03 in 9 mi East 2.2 mph - -   Clear
8:00 AM 59.0 °F 51.8 °F 77% 30.06 in 5.0 mi NE 4.6 mph - N/A   Unknown
9:00 AM 64.4 °F 53.6 °F 68% 30.06 in - ENE 4.6 mph - N/A   Clear
10:00 AM 68.0 °F 57.2 °F 68% 30.06 in 6.2 mi NW 4.6 mph - N/A   Scattered Clouds
11:00 AM 69.8 °F 66.2 °F 88% 30.04 in - West 4.6 mph - N/A   Clear
12:00 PM 71.6 °F 59.0 °F 64% 30.01 in 6.2 mi West 4.6 mph - N/A   Mostly Cloudy
1:00 PM 71.6 °F 55.4 °F 57% 30.01 in 6.2 mi West 4.6 mph - N/A   Mostly Cloudy
2:00 PM 71 °F 55 °F 46% 29.98 in 9 mi West 2.2 mph - -   Scattered Clouds
2:00 PM 71.6 °F 59.0 °F 64% 29.98 in 6.2 mi NW 6.9 mph - N/A   Mostly Cloudy
3:00 PM 69.8 °F 53.6 °F 56% 29.98 in 6.2 mi WNW 4.6 mph - N/A   Mostly Cloudy
4:00 PM 69.8 °F 53.6 °F 56% 29.98 in - WNW 4.6 mph - N/A   Clear
5:00 PM 66.2 °F 55.4 °F 68% 29.98 in - NNW 4.6 mph - N/A   Clear
6:00 PM 60.8 °F 55.4 °F 82% 29.98 in - ENE 6.9 mph - N/A   Clear
7:00 PM 59.0 °F 57.2 °F 94% 29.98 in - ENE 4.6 mph - N/A   Clear
8:00 PM 60 °F 53 °F 69% 29.96 in 9 mi NE 2.2 mph - -  
8:00 PM 55.4 °F 50.0 °F 82% 29.98 in - ENE 4.6 mph - N/A   Clear
9:00 PM 57.2 °F 48.2 °F 72% 29.98 in - ENE 4.6 mph - N/A   Clear
11:00 PM 57.2 °F 50.0 °F 77% 29.98 in - NE 6.9 mph - N/A   Clear